Wind_Speed
17 16 16 16 17 18 18 18 18 18 19 20 20 21 21 21 22 22 22 22 21 21 21 20 20 19 19 18 18 18 19 20 20 21 21 21 20 19 18 18 17 16 16 17 18 19 19 19 19 19 19 22 24 25 26 25 22 22 25 28 28 27
15 15 16 17 17 18 18 19 19 19 19 20 20 21 22 22 22 22 22 21 21 21 20 20 20 19 19 19 19 18 19 19 19 20 21 21 21 20 19 18 16 15 16 16 17 18 18 18 18 18 19 21 23 26 27 27 24 22 24 28 29 29
15 16 16 17 17 18 19 19 19 19 20 20 21 21 22 22 22 22 21 21 21 21 20 20 19 19 20 20 19 19 18 18 18 19 20 21 21 21 20 18 16 15 16 16 16 16 17 17 18 19 21 22 23 25 28 29 27 23 23 27 30 30
15 16 17 18 19 19 19 19 19 19 20 21 21 22 22 22 22 22 22 21 20 20 20 20 19 19 20 20 20 19 17 16 17 19 20 20 21 21 20 19 16 15 15 15 15 15 16 17 18 21 23 24 24 25 28 30 29 25 24 26 30 31
15 16 17 18 18 19 19 19 20 20 21 21 21 22 23 23 22 22 21 20 20 20 20 19 19 19 20 20 19 18 17 17 17 18 18 19 20 20 19 18 16 14 15 16 16 16 17 18 19 19 20 21 21 24 26 28 29 26 25 26 29 31
15 16 16 17 18 18 18 19 20 21 22 21 21 23 24 24 23 21 21 20 20 19 19 18 18 19 19 18 18 18 18 17 17 16 17 18 18 18 18 17 16 14 15 16 17 17 18 19 20 19 18 18 18 22 24 25 28 29 28 27 27 30
15 15 15 16 17 18 18 19 20 21 22 21 21 22 24 24 23 22 21 21 21 19 18 18 18 18 18 16 16 17 17 16 16 15 16 16 17 17 17 16 15 15 15 17 18 18 19 19 19 19 19 18 18 21 23 23 26 30 30 29 27 29
15 15 15 16 17 18 18 19 20 21 22 22 21 22 23 24 23 22 21 21 21 20 19 18 17 17 17 16 16 16 16 16 16 15 15 16 17 17 16 15 15 15 16 17 18 18 18 19 18 19 19 20 20 20 20 20 24 30 32 31 29 28
15 15 16 16 17 18 18 20 21 21 21 21 21 21 22 23 22 21 21 21 21 20 19 17 17 17 17 17 16 15 15 15 16 15 16 17 17 16 14 14 14 15 16 17 18 17 18 19 19 19 20 21 21 20 20 18 22 28 32 33 31 28
15 16 16 16 16 17 18 18 19 20 20 20 20 20 21 21 21 20 20 20 19 18 17 16 16 17 18 17 16 15 15 15 15 15 15 16 15 15 15 15 14 14 15 17 18 17 18 18 19 19 20 21 21 21 21 19 21 27 32 35 33 29
15 16 16 16 16 15 16 17 17 18 18 19 19 19 19 20 20 19 19 19 18 18 17 16 16 17 16 15 15 16 16 15 14 13 14 15 14 15 16 16 15 15 15 16 17 17 17 17 18 19 20 21 22 22 22 20 20 24 31 36 35 32
15 16 16 16 15 15 15 16 16 17 18 18 18 18 18 18 18 17 17 18 18 18 17 17 17 17 16 15 15 15 15 14 13 13 13 13 14 15 16 16 17 16 15 15 16 17 16 16 18 19 21 21 22 23 22 21 20 22 28 35 37 35
16 16 15 15 15 15 15 16 16 16 17 18 18 19 18 17 17 17 16 17 17 17 17 17 17 17 17 15 14 14 13 13 12 12 13 13 13 14 15 17 18 17 15 15 15 16 16 16 18 20 22 22 21 22 22 22 21 21 26 33 38 39
17 17 16 15 15 14 14 16 17 17 17 18 19 19 19 19 17 17 16 16 16 16 16 16 17 17 16 14 14 14 13 12 11 11 13 13 13 13 15 17 18 17 15 16 16 16 16 17 17 16 17 17 18 20 22 22 21 19 23 30 37 40
18 17 16 15 14 15 14 15 16 16 17 18 19 19 20 20 19 17 17 17 16 15 16 16 16 16 14 13 13 13 12 11 11 11 12 12 12 14 15 17 18 16 16 17 16 16 17 17 16 13 13 14 14 16 19 21 21 18 20 26 34 40
18 16 15 14 14 15 15 15 16 16 16 18 19 19 19 20 19 19 18 18 17 16 16 15 14 13 13 13 12 12 11 10 10 10 11 10 10 12 14 16 17 16 16 17 17 17 18 17 15 13 14 14 14 14 15 17 20 20 19 22 30 38
17 16 14 14 14 15 16 16 16 16 16 16 17 18 19 19 19 19 19 19 19 19 17 15 13 13 13 13 11 11 10 10 10 10 11 10 10 11 13 15 16 16 16 16 17 17 17 17 16 15 15 15 15 15 14 15 17 20 21 23 27 34
17 16 14 14 14 15 16 17 18 18 17 15 16 17 18 19 19 19 19 19 20 20 19 18 15 13 13 13 12 12 11 11 11 11 11 10 11 11 13 14 15 15 15 15 16 16 16 16 16 16 16 17 16 15 15 15 16 17 20 23 25 30
18 17 15 14 14 15 16 17 18 19 19 17 16 16 16 18 19 19 19 17 18 19 19 18 17 15 14 14 14 13 12 12 12 12 11 11 11 11 12 14 15 15 15 14 15 16 15 15 15 17 18 17 17 17 16 15 15 16 17 20 23 26
19 18 16 14 13 13 14 16 17 18 19 18 17 17 17 17 18 19 19 18 17 17 17 18 18 17 16 15 15 15 14 13 13 12 11 11 11 12 12 14 15 15 15 14 15 15 15 14 15 17 18 18 18 16 15 13 14 16 17 18 20 24
19 18 16 14 12 11 11 13 15 17 18 19 19 18 18 17 18 18 19 18 18 18 18 18 18 18 18 17 17 17 16 15 14 13 12 12 12 13 14 15 15 15 14 14 16 16 15 14 14 16 17 18 18 15 14 14 15 17 18 19 19 21
20 19 17 13 11 10 9 10 12 15 17 18 18 19 18 18 18 18 19 19 19 18 18 18 19 19 19 19 19 19 18 16 15 14 13 13 13 13 15 16 15 14 14 14 16 17 16 16 15 15 15 16 16 15 15 16 17 17 18 18 18 17
20 20 17 14 11 10 9 9 11 14 15 16 17 18 18 18 17 17 18 19 19 19 19 18 18 19 19 19 19 19 18 17 16 15 15 14 14 14 15 17 16 15 15 15 16 17 17 17 15 14 14 15 15 16 17 18 19 18 18 18 18 17
22 21 18 14 11 10 9 9 11 14 15 15 16 16 17 17 17 17 17 18 19 19 19 18 18 18 18 18 19 18 18 18 17 16 16 15 15 15 15 17 17 17 17 17 16 17 17 16 16 16 16 16 16 17 17 18 19 18 18 18 19 20
24 23 19 15 12 10 9 9 11 13 14 15 16 16 16 17 17 17 18 18 18 18 18 18 18 18 18 18 18 18 18 18 17 17 16 16 16 16 16 17 18 19 18 18 17 17 17 16 16 16 16 16 17 17 16 17 18 19 18 19 19 19
26 24 20 16 12 11 9 9 10 12 14 14 15 16 16 16 17 17 18 18 18 18 18 18 18 18 18 18 18 18 18 18 18 17 17 17 18 18 18 18 19 19 19 19 19 18 18 17 16 16 16 17 17 16 16 17 18 18 17 18 17 17
26 24 20 17 15 13 11 9 10 12 14 15 15 16 15 16 16 16 17 18 18 18 18 18 18 18 18 18 18 18 18 18 18 18 18 19 19 19 19 19 19 19 20 20 20 20 19 19 17 17 18 18 17 17 17 18 17 16 17 18 17 17
26 24 20 18 17 16 13 10 10 12 15 16 16 16 16 16 16 16 17 18 19 18 18 18 18 17 17 17 17 18 18 19 19 19 19 19 19 19 20 20 20 20 20 21 21 21 20 20 19 18 18 18 18 18 19 19 18 18 19 20 19 19
27 24 21 20 20 19 16 12 11 13 16 18 17 17 17 16 16 16 17 18 19 19 18 18 17 17 17 17 17 18 18 19 19 19 19 19 19 20 20 21 21 20 21 21 21 22 21 21 20 20 19 19 19 20 21 20 20 21 22 21 21 21
27 22 21 21 22 22 19 15 13 14 16 18 19 18 18 17 17 17 17 17 18 18 18 18 18 17 17 17 17 18 18 18 19 19 19 19 19 19 20 21 21 20 20 20 20 21 21 21 20 20 20 20 20 21 21 22 22 23 23 24 23 23
29 22 22 22 24 25 23 19 16 15 17 19 20 19 18 18 18 17 16 16 17 17 17 17 18 17 17 17 17 17 18 18 18 18 18 19 19 19 19 19 20 20 19 19 19 19 18 18 19 20 20 20 21 21 22 22 23 24 24 25 26 25
34 31 27 24 25 26 26 23 20 17 17 20 21 20 19 18 18 17 16 15 15 15 16 16 16 16 16 16 16 17 17 17 17 18 18 18 18 18 18 18 18 18 18 18 18 17 17 16 16 17 19 20 21 21 22 22 23 24 24 25 26 26
36 40 33 27 25 26 27 27 24 20 18 20 21 19 18 18 18 17 16 14 14 15 15 15 15 15 15 15 15 16 16 16 16 17 17 16 16 16 16 16 16 16 16 16 16 15 15 15 14 15 16 18 19 21 21 22 23 23 23 24 25 26
35 41 34 27 26 26 27 28 27 23 19 20 20 18 18 18 18 17 15 14 13 14 15 15 15 15 15 15 15 15 15 15 15 15 15 15 15 15 15 14 14 14 14 14 14 13 13 13 13 14 15 16 17 19 20 21 22 22 22 22 23 24
32 38 33 27 26 27 27 26 28 26 21 19 19 18 18 18 18 17 15 13 13 13 14 15 15 15 16 16 15 15 15 15 15 15 15 15 15 15 14 14 14 13 13 12 12 12 11 11 12 13 14 14 15 16 17 18 20 20 20 20 21 21
28 33 33 29 26 25 25 25 27 27 22 19 18 17 17 18 18 17 15 14 14 13 14 15 15 15 15 16 16 16 16 15 15 15 15 15 15 15 15 14 14 13 12 12 11 11 10 10 11 11 12 13 14 14 15 15 17 18 18 17 18 18
25 26 29 29 25 23 26 27 26 26 23 19 18 17 17 17 17 17 16 15 15 15 15 16 16 16 15 15 15 15 16 16 16 16 16 16 15 15 15 15 15 14 13 13 12 11 11 10 10 11 12 13 13 14 14 14 14 15 15 15 14 14
Wind_Direction
269 270 273 276 279 281 280 279 278 279 278 278 279 280 279 279 279 280 281 284 285 283 279 276 273 271 268 263 259 258 258 258 258 260 262 263 262 262 261 260 256 251 245 242 242 243 243 244 244 242 240 241 239 234 233 233 229 219 212 211 213 219
270 272 275 279 281 280 279 278 277 277 276 276 278 278 278 278 280 281 282 283 282 280 277 274 271 268 264 260 257 256 256 256 257 260 263 264 263 263 262 259 255 251 245 240 240 242 244 246 246 245 242 240 240 237 233 230 229 226 217 213 214 216
275 278 280 281 279 277 277 277 277 276 274 274 275 277 277 277 279 281 281 281 278 277 275 273 269 266 262 259 255 254 254 254 255 258 260 263 263 262 262 259 254 249 246 241 238 240 244 247 249 249 245 241 239 240 238 230 226 227 222 218 217 216
281 282 282 281 279 279 278 277 276 274 273 273 274 275 275 275 276 277 278 280 277 274 273 271 268 265 263 259 256 253 251 251 252 255 256 258 260 262 263 260 255 249 247 245 242 242 243 247 250 252 248 243 240 241 242 235 226 224 224 223 222 219
285 284 284 282 280 280 277 275 273 273 273 273 274 273 273 272 272 272 275 277 276 274 272 270 266 264 263 261 258 251 247 247 249 251 253 257 260 262 263 263 260 250 244 246 247 244 243 246 248 253 253 249 243 242 245 241 230 222 223 225 226 223
288 289 288 285 282 279 277 275 273 274 273 272 272 272 271 271 270 269 270 272 272 271 271 269 264 262 262 260 255 248 245 246 246 249 254 258 260 261 263 263 261 253 245 244 246 244 244 246 248 253 257 255 249 245 247 245 233 223 221 224 228 227
290 290 287 284 281 279 277 275 273 273 272 272 271 271 272 272 271 267 264 268 271 270 269 266 261 259 256 251 248 247 246 245 246 251 254 257 258 259 261 261 261 257 249 243 243 244 245 248 250 252 252 252 252 250 252 251 238 225 220 223 225 228
291 287 283 282 280 279 278 277 275 274 275 275 273 273 274 274 274 269 262 264 269 269 268 264 257 255 249 242 243 246 247 247 247 250 251 254 257 258 260 261 263 260 252 245 241 242 244 247 248 249 247 246 249 252 256 255 243 229 222 223 225 226
288 287 287 286 283 282 282 281 280 279 279 279 278 277 276 277 276 271 265 266 269 268 267 264 256 253 247 240 239 241 245 248 248 247 248 251 253 253 254 256 257 255 253 246 240 237 240 243 245 245 244 244 246 249 251 251 242 232 224 225 227 225
288 290 291 291 289 289 289 287 284 283 282 282 282 283 283 281 278 273 270 271 272 271 269 264 257 253 247 240 238 238 242 247 248 248 248 250 251 250 249 248 248 248 249 246 241 237 235 241 245 244 243 244 245 245 246 245 239 231 225 225 228 226
297 298 298 297 294 294 295 294 291 288 286 285 286 288 291 289 283 278 275 276 276 273 271 264 257 253 247 241 240 240 241 244 247 250 252 252 253 252 250 247 247 247 245 245 244 243 240 242 245 246 245 244 243 243 243 244 239 232 226 224 227 226
297 300 302 301 299 298 297 297 296 294 292 291 293 292 293 295 292 287 283 282 280 275 271 263 256 250 245 242 243 244 246 246 247 252 257 257 255 254 253 252 250 247 245 245 245 247 246 244 247 248 246 244 242 240 239 241 240 235 229 226 227 227
296 298 300 300 300 300 301 300 298 295 295 295 296 295 295 296 297 295 290 286 284 278 271 264 258 252 245 245 248 252 253 251 250 253 256 257 255 254 254 254 252 249 247 249 246 246 247 245 250 252 249 249 248 244 238 239 240 237 233 228 226 226
298 298 297 297 295 295 298 300 299 296 295 293 294 296 296 297 298 299 295 289 288 282 275 269 263 258 250 248 255 257 255 254 257 261 262 260 257 255 252 253 255 255 254 255 250 247 249 247 252 259 258 258 260 253 244 240 241 241 237 232 226 225
297 297 295 296 293 294 294 294 297 296 296 294 292 291 293 296 297 298 294 290 289 283 279 275 267 262 256 255 260 262 259 259 263 270 271 267 264 259 252 251 254 257 257 257 254 250 251 252 254 262 267 269 269 262 249 241 242 244 241 235 228 225
298 299 297 296 293 295 294 292 292 292 294 297 297 294 293 294 293 293 292 291 290 287 284 279 271 266 262 261 261 263 265 266 269 275 278 277 273 265 256 252 255 257 258 260 259 254 254 259 261 262 266 268 267 263 257 247 244 247 246 238 230 226
296 298 297 296 294 294 294 293 291 287 287 290 298 302 301 298 294 291 290 291 292 290 289 284 277 273 270 269 266 268 277 284 284 281 281 284 284 278 266 258 258 259 260 262 263 261 262 266 267 266 265 263 262 261 260 254 247 249 251 245 234 227
291 292 293 293 294 294 295 296 295 293 288 284 289 296 301 301 298 296 294 294 293 292 293 290 287 284 280 280 280 283 292 296 294 288 285 289 292 286 274 264 261 261 262 264 266 268 270 270 269 270 268 263 261 259 255 254 249 248 251 251 243 232
286 285 287 289 291 295 297 298 297 297 294 287 283 285 290 295 298 298 296 295 292 291 292 291 289 286 280 279 281 285 291 290 288 289 288 290 292 287 277 270 267 266 266 267 270 273 274 274 272 271 269 264 261 256 252 252 251 249 251 252 250 241
283 283 284 285 290 296 300 302 300 299 298 293 287 285 284 287 291 293 293 292 290 287 286 285 284 281 276 273 273 275 278 278 280 285 286 285 286 283 278 275 272 269 268 270 273 274 274 277 276 271 266 263 263 260 254 253 255 257 259 257 255 250
283 282 281 283 289 296 303 307 304 301 299 297 294 292 290 288 289 291 292 293 291 288 285 282 280 278 276 272 272 272 273 276 280 282 284 283 281 279 279 276 271 268 268 272 275 275 273 276 280 277 267 262 266 266 261 261 262 265 269 271 267 261
281 279 278 281 287 293 300 304 303 301 300 300 297 294 293 292 292 292 294 295 294 292 288 285 282 280 278 275 276 277 277 279 282 283 284 283 280 279 280 277 273 272 275 276 277 276 275 276 281 280 271 266 270 272 268 265 266 268 273 276 277 275
278 277 276 278 282 288 291 292 293 293 294 296 294 292 291 290 291 291 293 294 295 294 292 289 286 283 281 281 281 282 282 282 283 284 284 282 280 279 281 281 281 282 281 280 279 278 278 277 278 276 272 272 275 275 270 267 267 267 267 270 274 278
275 275 275 276 280 285 290 291 288 287 289 291 289 287 287 287 287 288 290 292 293 293 293 291 288 286 284 283 284 284 285 283 282 283 282 281 279 276 276 277 279 280 278 278 277 277 278 276 273 272 271 272 273 271 267 263 263 264 265 268 271 273
275 275 275 278 283 289 295 297 293 292 293 294 293 288 285 284 284 285 286 287 289 290 289 289 288 286 285 284 284 284 283 283 282 281 278 276 273 271 269 269 271 274 275 277 276 276 276 273 271 270 269 267 267 265 261 259 261 265 267 270 273 273
273 273 276 281 287 293 299 301 300 300 299 298 299 295 290 286 284 283 283 283 284 284 284 284 283 282 282 281 280 280 278 278 277 274 271 269 268 268 267 267 268 271 273 274 274 274 274 273 270 266 265 265 263 261 260 262 266 267 265 267 273 273
272 273 278 284 289 295 299 300 302 305 303 302 302 300 295 290 287 284 283 281 281 281 280 280 279 279 279 278 277 276 275 273 271 269 268 267 266 267 267 266 267 267 268 270 272 272 271 271 268 263 264 265 263 261 262 265 267 266 263 264 270 270
269 272 278 287 292 296 300 298 302 309 308 306 305 304 299 293 289 285 282 282 279 278 278 277 278 279 279 279 278 277 276 274 272 270 269 267 267 267 267 267 266 265 265 266 268 269 269 269 268 264 263 262 260 259 259 260 260 261 262 264 266 266
264 270 279 290 294 295 298 297 300 310 312 308 307 306 302 294 288 284 281 280 278 276 277 276 277 278 279 280 280 279 277 275 274 274 271 269 268 268 267 267 267 265 264 264 265 266 267 267 266 263 261 260 259 259 258 258 258 259 261 261 261 262
258 273 287 291 295 295 296 297 299 308 313 310 308 307 302 294 286 281 279 278 277 275 275 275 276 277 277 277 277 277 277 275 274 273 271 270 269 267 267 267 267 266 265 264 264 264 265 265 264 263 260 258 258 258 258 258 259 259 260 261 260 261
251 276 299 295 294 296 296 297 297 304 311 308 306 305 298 291 284 279 276 277 278 277 276 276 277 278 277 276 275 275 275 274 273 272 271 269 268 268 267 266 267 267 266 265 264 264 265 265 265 264 263 259 256 256 256 257 259 259 259 261 261 261
254 269 293 296 292 293 294 296 295 299 308 307 304 301 292 286 281 277 275 276 279 281 281 281 281 281 281 279 277 276 274 273 273 272 271 270 270 269 268 268 267 267 267 267 266 266 266 266 266 265 264 262 260 258 256 256 257 257 258 259 261 261
261 261 276 290 288 288 291 292 294 297 304 304 299 295 286 279 275 273 272 274 280 285 286 287 287 286 285 283 280 277 275 273 273 272 272 271 271 271 270 270 269 269 269 269 269 270 270 267 265 264 263 262 261 260 259 258 257 257 257 258 260 261
268 256 264 282 282 282 285 285 289 293 299 300 292 284 278 272 271 269 269 272 278 286 288 289 289 288 287 285 282 280 277 275 274 273 273 273 273 273 272 271 270 270 270 270 272 273 273 271 267 264 262 262 262 261 261 260 259 259 258 258 260 262
274 253 256 280 281 278 280 277 282 288 293 292 282 273 268 267 268 266 265 269 274 283 288 289 289 287 286 284 283 282 279 277 276 274 274 274 275 275 275 274 273 272 271 270 272 273 272 271 268 266 265 264 265 264 263 263 264 264 262 261 260 261
278 254 256 276 274 270 273 270 275 281 286 282 270 264 261 262 267 265 263 266 271 278 284 286 285 283 284 284 284 284 281 279 277 274 274 273 274 275 276 276 275 273 272 269 268 268 266 265 263 262 262 262 264 266 266 265 266 268 269 267 265 264
280 261 259 265 262 267 273 269 268 273 278 272 261 259 258 258 264 266 265 266 271 277 279 281 282 279 279 280 282 284 283 282 280 277 275 273 273 273 274 275 275 273 272 268 265 262 260 257 254 254 254 256 259 261 264 264 264 268 270 271 270 268
Height
5818 5818 5819 5820 5820 5820 5820 5820 5820 5820 5820 5820 5820 5820 5820 5819 5819 5819 5819 5819 5819 5820 5819 5820 5820 5820 5820 5821 5821 5821 5822 5822 5823 5823 5824 5824 5825 5826 5827 5827 5828 5829 5829 5830 5830 5830 5831 5832 5832 5833 5834 5835 5836 5837 5838 5841 5844 5845 5846 5847 5848 5848
5816 5817 5817 5818 5818 5818 5818 5817 5817 5818 5818 5818 5818 5818 5818 5817 5817 5818 5818 5817 5817 5817 5817 5817 5818 5818 5818 5818 5819 5820 5820 5821 5822 5822 5822 5823 5823 5824 5825 5826 5826 5826 5827 5828 5828 5829 5830 5830 5831 5831 5832 5833 5834 5835 5836 5838 5842 5843 5845 5845 5846 5846
5815 5815 5815 5816 5816 5816 5816 5815 5815 5816 5816 5816 5816 5816 5815 5815 5816 5816 5816 5815 5815 5815 5815 5815 5815 5816 5816 5816 5817 5818 5819 5820 5820 5821 5821 5821 5821 5821 5822 5823 5824 5824 5825 5826 5827 5827 5828 5828 5829 5829 5830 5830 5831 5832 5833 5835 5839 5841 5843 5843 5844 5845
5812 5812 5813 5813 5814 5814 5814 5813 5813 5813 5814 5814 5814 5814 5813 5813 5814 5814 5813 5813 5813 5813 5813 5813 5813 5814 5814 5815 5816 5817 5818 5818 5819 5819 5818 5818 5819 5819 5820 5821 5822 5823 5823 5824 5825 5826 5826 5827 5827 5827 5827 5828 5829 5830 5830 5832 5836 5839 5841 5841 5841 5843
5810 5810 5811 5811 5811 5812 5811 5811 5810 5811 5811 5811 5812 5811 5811 5811 5811 5811 5811 5810 5810 5811 5811 5811 5811 5812 5812 5814 5815 5816 5816 5816 5817 5816 5816 5817 5817 5817 5818 5819 5820 5821 5821 5822 5823 5824 5825 5825 5825 5825 5825 5825 5826 5827 5827 5829 5834 5837 5838 5838 5839 5840
5807 5808 5808 5809 5809 5809 5809 5808 5808 5808 5808 5809 5810 5809 5808 5808 5808 5809 5808 5807 5808 5808 5808 5808 5809 5810 5811 5813 5813 5813 5813 5814 5815 5815 5815 5815 5816 5816 5816 5817 5818 5819 5820 5820 5821 5822 5822 5822 5822 5822 5823 5823 5824 5824 5824 5826 5831 5835 5835 5836 5837 5838
5805 5806 5806 5806 5807 5807 5807 5806 5806 5805 5805 5806 5807 5806 5805 5805 5805 5806 5806 5805 5805 5806 5806 5806 5807 5808 5810 5811 5810 5810 5812 5812 5812 5813 5814 5814 5814 5814 5815 5815 5816 5817 5817 5818 5818 5819 5819 5819 5820 5820 5821 5821 5821 5821 5821 5823 5827 5831 5832 5833 5834 5835
5803 5804 5804 5804 5804 5804 5804 5803 5803 5802 5802 5803 5804 5804 5803 5802 5802 5803 5804 5803 5803 5803 5804 5805 5806 5807 5808 5808 5807 5808 5809 5810 5811 5812 5812 5812 5813 5812 5813 5813 5814 5814 5815 5815 5815 5816 5816 5816 5817 5818 5818 5819 5819 5819 5819 5821 5824 5827 5830 5831 5831 5832
5800 5801 5802 5802 5802 5802 5801 5800 5800 5800 5800 5800 5801 5801 5800 5800 5799 5799 5800 5800 5801 5801 5801 5803 5804 5805 5805 5805 5804 5806 5807 5807 5809 5810 5810 5811 5811 5811 5811 5812 5812 5812 5812 5813 5813 5813 5813 5814 5814 5815 5816 5817 5816 5816 5816 5818 5820 5824 5827 5828 5829 5830
5799 5800 5800 5800 5800 5800 5799 5798 5798 5798 5797 5798 5798 5798 5798 5797 5797 5797 5798 5798 5798 5799 5800 5800 5802 5803 5803 5802 5802 5803 5804 5805 5807 5808 5809 5809 5809 5810 5810 5810 5810 5810 5810 5810 5811 5811 5811 5811 5812 5812 5813 5814 5814 5814 5814 5814 5817 5820 5822 5824 5826 5828
5797 5798 5798 5798 5798 5798 5796 5795 5796 5795 5795 5795 5796 5796 5795 5795 5795 5796 5796 5796 5797 5797 5797 5798 5799 5800 5800 5800 5801 5802 5803 5804 5805 5806 5807 5807 5808 5808 5808 5808 5808 5808 5808 5809 5809 5809 5809 5809 5810 5810 5810 5811 5811 5811 5811 5812 5814 5816 5819 5821 5823 5825
5796 5796 5796 5795 5795 5795 5794 5793 5793 5793 5793 5793 5793 5794 5794 5793 5792 5793 5794 5794 5794 5794 5795 5796 5797 5797 5799 5799 5800 5801 5802 5802 5803 5804 5805 5805 5806 5806 5806 5806 5806 5806 5807 5807 5807 5807 5808 5808 5808 5808 5808 5808 5808 5808 5809 5809 5811 5813 5815 5817 5819 5822
5793 5794 5793 5793 5793 5793 5791 5791 5791 5792 5792 5791 5791 5791 5792 5792 5791 5791 5792 5791 5791 5792 5793 5794 5794 5795 5796 5797 5799 5800 5800 5801 5801 5802 5803 5804 5804 5804 5804 5804 5804 5805 5805 5805 5805 5805 5805 5806 5806 5806 5806 5806 5806 5807 5807 5807 5808 5810 5812 5813 5815 5818
5791 5791 5791 5790 5790 5791 5790 5789 5788 5790 5790 5790 5789 5789 5789 5789 5789 5789 5789 5789 5790 5790 5790 5792 5792 5793 5793 5795 5797 5798 5799 5799 5799 5800 5801 5802 5803 5803 5802 5802 5802 5803 5804 5803 5803 5803 5803 5803 5804 5804 5805 5805 5806 5806 5806 5806 5806 5808 5810 5810 5812 5814
5789 5789 5788 5788 5787 5788 5788 5787 5787 5787 5787 5787 5787 5788 5787 5787 5787 5787 5787 5787 5788 5788 5788 5790 5791 5791 5792 5793 5796 5797 5797 5797 5798 5798 5799 5800 5801 5801 5801 5800 5799 5800 5801 5801 5801 5801 5801 5802 5803 5804 5804 5804 5805 5804 5804 5805 5805 5806 5807 5808 5808 5811
5787 5787 5786 5785 5784 5784 5785 5786 5786 5786 5786 5785 5784 5785 5785 5785 5785 5785 5785 5785 5785 5786 5786 5788 5790 5790 5791 5793 5794 5795 5796 5796 5796 5797 5798 5798 5799 5799 5798 5798 5797 5797 5798 5799 5799 5800 5800 5801 5802 5802 5801 5801 5802 5802 5802 5803 5803 5804 5805 5806 5806 5807
5785 5784 5783 5783 5783 5783 5783 5784 5784 5785 5785 5785 5783 5783 5782 5782 5782 5782 5783 5783 5783 5784 5784 5786 5788 5789 5790 5791 5792 5793 5794 5794 5794 5795 5796 5796 5797 5796 5796 5796 5796 5795 5796 5797 5797 5798 5798 5799 5799 5799 5799 5799 5798 5798 5799 5800 5801 5801 5802 5803 5804 5805
5784 5783 5782 5782 5782 5782 5782 5782 5782 5782 5783 5784 5784 5782 5781 5779 5779 5779 5780 5780 5780 5780 5781 5783 5785 5786 5787 5787 5789 5789 5790 5791 5792 5793 5793 5794 5794 5794 5793 5793 5793 5793 5794 5795 5795 5795 5796 5796 5797 5796 5796 5797 5796 5796 5797 5798 5798 5799 5799 5800 5801 5802
5783 5783 5782 5782 5781 5781 5781 5781 5780 5780 5780 5781 5782 5782 5781 5779 5778 5778 5778 5778 5778 5778 5779 5779 5781 5783 5784 5785 5786 5787 5788 5790 5790 5791 5791 5791 5791 5791 5791 5791 5791 5791 5791 5792 5792 5792 5793 5794 5794 5794 5794 5795 5795 5795 5795 5796 5796 5797 5797 5797 5798 5799
5781 5782 5782 5781 5780 5780 5780 5779 5779 5778 5777 5778 5779 5779 5780 5779 5778 5777 5776 5777 5777 5777 5778 5778 5779 5781 5782 5783 5784 5786 5787 5788 5789 5789 5789 5789 5789 5789 5789 5789 5789 5789 5789 5789 5790 5790 5790 5791 5792 5792 5793 5793 5793 5793 5793 5794 5795 5795 5795 5795 5795 5796
5780 5781 5780 5779 5779 5779 5779 5778 5777 5776 5775 5775 5776 5776 5776 5776 5776 5775 5774 5774 5774 5775 5776 5777 5777 5779 5780 5781 5782 5784 5785 5786 5786 5787 5787 5787 5787 5787 5787 5787 5787 5787 5787 5788 5788 5788 5788 5789 5790 5791 5791 5791 5791 5791 5792 5792 5793 5793 5793 5793 5793 5793
5778 5779 5778 5777 5777 5777 5777 5776 5775 5774 5774 5773 5773 5773 5773 5773 5773 5772 5772 5772 5771 5772 5773 5773 5774 5775 5776 5777 5778 5779 5781 5782 5782 5783 5784 5784 5784 5785 5784 5784 5785 5785 5786 5786 5786 5786 5786 5787 5788 5789 5789 5789 5789 5789 5789 5790 5790 5791 5791 5791 5791 5791
5776 5777 5776 5775 5775 5775 5775 5775 5774 5773 5773 5772 5771 5771 5771 5771 5771 5770 5770 5769 5769 5769 5769 5770 5770 5771 5771 5772 5773 5774 5775 5777 5778 5779 5780 5781 5781 5782 5781 5781 5781 5782 5783 5783 5783 5784 5784 5785 5786 5786 5787 5787 5786 5786 5787 5787 5788 5789 5789 5789 5789 5789
5774 5774 5774 5773 5773 5773 5773 5773 5772 5772 5771 5771 5770 5770 5769 5769 5769 5768 5768 5767 5767 5767 5767 5767 5767 5768 5768 5769 5770 5770 5771 5773 5774 5775 5776 5777 5778 5779 5779 5778 5778 5779 5779 5780 5781 5781 5781 5782 5783 5784 5784 5784 5784 5784 5785 5785 5786 5787 5787 5787 5787 5787
5772 5771 5771 5770 5770 5770 5770 5770 5770 5769 5768 5768 5768 5767 5767 5767 5767 5766 5766 5766 5765 5765 5765 5765 5765 5766 5766 5767 5767 5768 5768 5769 5771 5772 5773 5775 5775 5776 5776 5776 5776 5776 5777 5777 5778 5778 5779 5779 5780 5780 5781 5781 5781 5782 5783 5783 5784 5784 5785 5785 5785 5785
5769 5769 5768 5768 5767 5767 5768 5768 5768 5767 5766 5766 5765 5765 5765 5765 5764 5764 5764 5764 5764 5764 5764 5764 5764 5764 5764 5765 5766 5766 5767 5767 5769 5770 5771 5772 5772 5773 5773 5773 5774 5774 5774 5774 5775 5775 5776 5777 5778 5778 5777 5778 5779 5779 5780 5781 5781 5782 5782 5782 5783 5783
5767 5767 5767 5766 5765 5765 5765 5766 5766 5765 5765 5764 5764 5763 5763 5763 5763 5762 5762 5762 5762 5762 5762 5762 5762 5763 5763 5763 5764 5765 5765 5766 5767 5768 5768 5769 5770 5770 5770 5771 5771 5772 5772 5772 5772 5773 5773 5774 5775 5775 5775 5775 5777 5777 5777 5778 5778 5779 5779 5780 5780 5780
5764 5765 5764 5764 5763 5763 5763 5764 5764 5764 5763 5762 5762 5762 5761 5761 5761 5761 5760 5760 5760 5760 5760 5760 5761 5761 5761 5761 5762 5763 5763 5764 5765 5766 5766 5767 5768 5768 5768 5768 5769 5769 5770 5770 5770 5770 5770 5771 5771 5772 5772 5773 5774 5774 5774 5775 5776 5776 5776 5777 5777 5778
5762 5762 5761 5761 5760 5760 5761 5762 5762 5762 5761 5760 5760 5760 5759 5759 5759 5759 5758 5758 5758 5758 5758 5758 5759 5759 5759 5760 5760 5760 5761 5761 5762 5763 5764 5765 5765 5766 5766 5766 5767 5767 5768 5768 5768 5768 5768 5768 5769 5769 5770 5770 5771 5771 5772 5772 5773 5773 5773 5774 5774 5775
5759 5758 5757 5757 5757 5757 5758 5759 5759 5759 5759 5758 5757 5757 5757 5757 5757 5756 5756 5756 5757 5757 5757 5757 5757 5757 5757 5758 5758 5759 5759 5759 5760 5761 5761 5762 5763 5763 5764 5764 5764 5765 5765 5766 5766 5766 5766 5766 5766 5766 5767 5768 5768 5769 5769 5770 5770 5770 5771 5771 5771 5772
5755 5755 5754 5754 5755 5755 5755 5756 5756 5757 5757 5756 5755 5755 5755 5754 5754 5754 5754 5754 5754 5755 5755 5755 5755 5755 5756 5756 5756 5757 5757 5757 5758 5758 5759 5759 5760 5760 5761 5761 5762 5762 5762 5762 5763 5763 5763 5764 5764 5764 5764 5765 5765 5766 5766 5767 5768 5768 5768 5768 5769 5770
5751 5750 5750 5751 5752 5752 5752 5752 5753 5754 5754 5754 5753 5752 5752 5752 5752 5752 5752 5752 5752 5752 5753 5753 5753 5753 5754 5754 5754 5755 5755 5755 5755 5756 5756 5756 5757 5757 5758 5758 5759 5759 5759 5759 5759 5760 5760 5760 5761 5761 5761 5762 5762 5763 5763 5764 5765 5765 5765 5766 5766 5766
5747 5747 5748 5749 5750 5750 5749 5749 5749 5750 5751 5751 5750 5750 5750 5750 5750 5749 5750 5750 5750 5750 5750 5751 5751 5751 5751 5752 5752 5752 5753 5753 5753 5753 5754 5754 5754 5755 5755 5755 5756 5756 5756 5757 5757 5757 5757 5757 5758 5758 5758 5759 5760 5760 5761 5761 5762 5762 5762 5763 5763 5763
5744 5744 5745 5746 5747 5747 5747 5746 5745 5746 5748 5748 5748 5748 5747 5747 5747 5747 5747 5748 5748 5749 5749 5749 5749 5749 5749 5749 5750 5750 5750 5751 5751 5751 5751 5752 5752 5752 5752 5753 5753 5753 5754 5754 5754 5755 5755 5755 5756 5756 5756 5756 5757 5757 5758 5758 5759 5759 5760 5760 5760 5760
5741 5740 5742 5744 5744 5743 5743 5743 5743 5743 5744 5746 5746 5746 5746 5745 5745 5745 5746 5746 5746 5747 5747 5747 5747 5747 5748 5748 5748 5748 5748 5748 5748 5749 5749 5749 5750 5750 5750 5750 5751 5751 5751 5751 5752 5752 5753 5753 5754 5754 5754 5754 5755 5755 5755 5756 5756 5757 5757 5757 5758 5758
5740 5739 5739 5738 5737 5738 5739 5740 5740 5740 5741 5743 5743 5743 5744 5744 5743 5743 5744 5744 5744 5745 5745 5745 5746 5746 5746 5746 5746 5746 5746 5746 5746 5746 5747 5747 5747 5747 5748 5748 5748 5749 5749 5749 5750 5750 5751 5751 5752 5752 5752 5753 5753 5753 5753 5754 5754 5754 5754 5755 5755 5755
5738 5737 5736 5733 5733 5735 5736 5736 5737 5738 5739 5740 5741 5741 5742 5742 5742 5741 5741 5742 5742 5743 5743 5744 5744 5744 5744 5744 5744 5744 5744 5744 5744 5744 5744 5745 5745 5745 5745 5745 5746 5746 5746 5747 5747 5748 5748 5749 5749 5750 5750 5751 5751 5751 5751 5751 5752 5752 5752 5753 5753 5753